Tacoma Narrows, WA
on Thursday, November 15, 2012

Thursday
Previous Day Next Day
Daily Summary
 ActualAverageRecord
Temperature
Mean Temperature °F °F  
Max Temperature 45°F 48°F 64°F (2001)
Min Temperature 39°F 40°F 33°F (2000)
Degree Days
Heating Degree Days 23    
Moisture
Dew Point 39°F   
Average Humidity 88    
Maximum Humidity 97    
Minimum Humidity 80    
Precipitation
Precipitation 0.00 in in in ()
Wind
Wind Speed 3 mph   
Max Wind Speed 8 mph   
Max Gust Speed mph   
Visibility 6 miles   
Events Fog   
Averages and records for this station are not official NWS values.
Key: T is trace of precipitation, MM is missing value
Source: NWS Daily Summary
Seasonal Weather Averages
Time(PST)TemperatureDew PointHumidity Pressure Visibility Wind DirectionWind SpeedGust SpeedPrecipitationEvents Conditions
12:34 AM 41.0°F 39.2°F 93% 30.25 in 1.8 miles WNW 3.5 mph - N/A   Clear
12:37 AM 41.0°F 39.2°F 93% 30.25 in 1.0 miles WNW 4.6 mph - N/A   Mist
12:51 AM 41.0°F 39.2°F 93% 30.25 in 0.5 miles NNW 3.5 mph - N/A Fog Fog
12:53 AM 41.0°F 39.9°F 96% 30.25 in 0.5 miles Calm Calm - N/A Fog Fog
1:00 AM 41.0°F 39.2°F 93% 30.24 in 0.2 miles Calm Calm - N/A Fog Fog
1:10 AM 42.8°F 39.2°F 87% 30.24 in 1.0 miles NNE 4.6 mph - N/A   Mist
1:15 AM 42.8°F 41.0°F 93% 30.24 in 3.0 miles Calm Calm - N/A   Mostly Cloudy
1:53 AM 43.0°F 42.1°F 97% 30.24 in 4.0 miles North 5.8 mph - N/A   Overcast
2:53 AM 43.0°F 42.1°F 97% 30.23 in 5.0 miles North 5.8 mph - N/A   Overcast
3:53 AM 43.0°F 41.0°F 93% 30.21 in 8.0 miles North 3.5 mph - N/A   Overcast
4:53 AM 43.0°F 41.0°F 93% 30.19 in 5.0 miles North 5.8 mph - N/A   Overcast
5:33 AM 42.8°F 39.2°F 87% 30.17 in 10.0 miles North 5.8 mph - N/A   Overcast
5:53 AM 43.0°F 39.9°F 89% 30.17 in 10.0 miles NNE 6.9 mph - N/A   Overcast
6:53 AM 43.0°F 39.9°F 89% 30.16 in 10.0 miles North 6.9 mph - N/A   Overcast
7:53 AM 42.1°F 39.0°F 89% 30.14 in 10.0 miles North 6.9 mph - N/A   Mostly Cloudy
8:53 AM 43.0°F 39.0°F 86% 30.13 in 10.0 miles NNE 5.8 mph - N/A   Overcast
9:53 AM 44.1°F 39.0°F 82% 30.11 in 10.0 miles North 8.1 mph - N/A   Overcast
10:53 AM 44.1°F 39.9°F 85% 30.09 in 10.0 miles North 6.9 mph - N/A   Overcast
11:53 AM 44.1°F 39.0°F 82% 30.06 in 10.0 miles NE 3.5 mph - N/A   Overcast
12:53 PM 45.0°F 39.0°F 80% 30.04 in 10.0 miles Calm Calm - N/A   Overcast
1:53 PM 45.0°F 39.9°F 82% 30.03 in 10.0 miles Variable 3.5 mph - N/A   Overcast
2:53 PM 45.0°F 39.0°F 80% 30.02 in 10.0 miles Calm Calm - N/A   Overcast
3:53 PM 44.1°F 39.0°F 82% 30.01 in 10.0 miles Calm Calm - N/A   Scattered Clouds
4:53 PM 43.0°F 37.9°F 82% 30.01 in 10.0 miles Calm Calm - N/A   Scattered Clouds
5:53 PM 41.0°F 37.9°F 89% 30.00 in 10.0 miles Calm Calm - N/A   Mostly Cloudy
6:53 PM 44.1°F 39.0°F 82% 29.99 in 10.0 miles Calm Calm - N/A   Overcast
7:53 PM 42.1°F 39.9°F 92% 29.98 in 7.0 miles Calm Calm - N/A   Scattered Clouds
8:14 PM 42.8°F 39.2°F 87% 29.96 in 6.0 miles Calm Calm - N/A   Mostly Cloudy
8:30 PM 41.0°F 37.4°F 87% 29.96 in 5.0 miles Calm Calm - N/A   Scattered Clouds
8:42 PM 39.2°F 37.4°F 93% 29.96 in 4.0 miles Calm Calm - N/A   Mostly Cloudy
8:53 PM 41.0°F 37.9°F 89% 29.98 in 4.0 miles SSW 3.5 mph - N/A   Mostly Cloudy
9:53 PM 42.1°F 39.0°F 89% 29.97 in 3.0 miles Calm Calm - N/A   Overcast
10:53 PM 43.0°F 39.9°F 89% 29.96 in 6.0 miles Calm Calm - N/A   Overcast
11:27 PM 42.8°F 39.2°F 87% 29.95 in 6.0 miles Calm Calm - N/A   Overcast
11:53 PM 42.1°F 39.0°F 89% 29.96 in 6.0 miles South 4.6 mph - N/A   Overcast
Moon Phase
Nov. 15 Nov. 20 Nov. 28 Dec. 06 Dec. 13
Sunrise:07:15 AM (PST) Moon Rise:09:21 AM (PST)11/15
Sunset:04:34 PM (PST) Moon Set:06:27 PM (PST)11/15

Copyright © 2014 The Weather Underground, Inc.